Weather History for Minneapolis Flying Cloud, MN

Change the Weather History Date:

Thursday, April 10, 2014

  Actual Average Record
Temperature  
Mean Temperature 12 °C -  
Max Temperature 17 °C 11 °C 25 °C (2006)
Min Temperature 8 °C 1 °C -2 °C (2004)
Degree Days  
Heating Degree Days 10    
Growing Degree Days 4 (Base 50)    
Moisture  
Dew Point -3 °C    
Average Humidity 37    
Maximum Humidity 59    
Minimum Humidity 19    
Precipitation  
Precipitation 0.00 mm - - ()
Sea Level Pressure  
Sea Level Pressure 1009 hPa    
Wind  
Wind Speed 19 km/h (WNW)    
Max Wind Speed 37 km/h    
Max Gust Speed 55 km/h    
Visibility 16 kilometers    
Events      
Averages and records for this station are not official NWS values.
T = Trace of Precipitation, MM = Missing Value Source: NWS Daily Summary

Daily Weather History Graph

Daily Weather History Graph

Search for Another Location

Airport:

Trip Planner

Search our weather history database for the weather conditions in past years. The results will help you decide how hot, cold, wet, or windy it might be!

Date:

Astronomy

Apr. 10, 2014 Rise Set
Actual Time 6:38 AM CDT 7:52 PM CDT
Civil Twilight 6:08 AM CDT 8:23 PM CDT
Nautical Twilight 5:31 AM CDT 8:59 PM CDT
Astronomical Twilight 4:53 AM CDT 9:38 PM CDT
Moon 3:27 PM CDT (4/10) 4:12 AM CDT (4/10)
Length of Visible Light 14h 15m
Length of Day
13h 14m
Waxing Gibbous, 80% of the Moon is Illuminated
Apr 10
Waxing Gibbous
Apr 15
Full
Apr 22
Last Quarter
Apr 29
New
May 6
First Quarter

Hourly Weather History & Observations

Time (CDT) Temp. Windchill Dew Point Humidity Pressure Visibility Wind Dir Wind Speed Gust Speed Precip Events Conditions
12:53 AM 17.2 °C - 5.6 °C 46% 1000.5 hPa 16.1 km WNW 18.5 km/h / 5.1 m/s 33.3 km/h / 9.3 m/s N/A   Overcast
1:53 AM 14.4 °C - 5.0 °C 53% 1002.4 hPa 16.1 km NW 22.2 km/h / 6.2 m/s 37.0 km/h / 10.3 m/s N/A   Overcast
2:53 AM 11.7 °C - 3.9 °C 59% 1003.1 hPa 16.1 km NNW 22.2 km/h / 6.2 m/s 37.0 km/h / 10.3 m/s N/A   Clear
3:53 AM 11.1 °C - 2.2 °C 54% 1003.7 hPa 16.1 km NNW 16.7 km/h / 4.6 m/s - N/A   Overcast
4:53 AM 10.0 °C - 0.6 °C 52% 1004.7 hPa 16.1 km NNW 16.7 km/h / 4.6 m/s 31.5 km/h / 8.7 m/s N/A   Overcast
5:53 AM 9.4 °C - -0.6 °C 50% 1005.5 hPa 16.1 km NW 11.1 km/h / 3.1 m/s - N/A   Mostly Cloudy
6:53 AM 7.8 °C 6.2 °C -1.7 °C 51% 1006.5 hPa 16.1 km WNW 9.3 km/h / 2.6 m/s - N/A   Clear
7:53 AM 8.3 °C - -1.1 °C 52% 1007.5 hPa 16.1 km WNW 13.0 km/h / 3.6 m/s - N/A   Clear
9:53 AM 11.7 °C - -2.2 °C 38% 1008.1 hPa 16.1 km WNW 22.2 km/h / 6.2 m/s - N/A   Clear
10:53 AM 13.3 °C - -3.9 °C 30% 1008.7 hPa 16.1 km WNW 24.1 km/h / 6.7 m/s 37.0 km/h / 10.3 m/s N/A   Clear
11:53 AM 14.4 °C - -4.4 °C 27% 1009.3 hPa 16.1 km WNW 33.3 km/h / 9.3 m/s 44.4 km/h / 12.3 m/s N/A   Clear
12:53 PM 15.0 °C - -7.8 °C 20% 1009.3 hPa 16.1 km WNW 31.5 km/h / 8.7 m/s 50.0 km/h / 13.9 m/s N/A   Clear
1:53 PM 15.6 °C - -8.3 °C 19% 1009.6 hPa 16.1 km WNW 37.0 km/h / 10.3 m/s 55.6 km/h / 15.4 m/s N/A   Clear
2:53 PM 15.6 °C - -7.2 °C 20% 1010.2 hPa 16.1 km WNW 27.8 km/h / 7.7 m/s 44.4 km/h / 12.3 m/s N/A   Clear
3:53 PM 16.1 °C - -7.2 °C 20% 1010.1 hPa 16.1 km WNW 33.3 km/h / 9.3 m/s 42.6 km/h / 11.8 m/s N/A   Clear
4:53 PM 15.6 °C - -6.7 °C 21% 1010.3 hPa 16.1 km WNW 24.1 km/h / 6.7 m/s 38.9 km/h / 10.8 m/s N/A   Clear
5:53 PM 15.6 °C - -5.6 °C 23% 1010.9 hPa 16.1 km West 20.4 km/h / 5.7 m/s - N/A   Clear
6:53 PM 14.4 °C - -5.6 °C 25% 1011.4 hPa 16.1 km WNW 22.2 km/h / 6.2 m/s 33.3 km/h / 9.3 m/s N/A   Clear
7:53 PM 12.2 °C - -3.9 °C 33% 1011.8 hPa 16.1 km West 11.1 km/h / 3.1 m/s - N/A   Clear
8:53 PM 10.6 °C - -3.9 °C 36% 1012.8 hPa 16.1 km West 7.4 km/h / 2.1 m/s - N/A   Clear
9:53 PM 9.4 °C - -3.3 °C 41% 1013.5 hPa 16.1 km WSW 9.3 km/h / 2.6 m/s - N/A   Clear
10:53 PM 8.9 °C - -2.8 °C 44% 1013.8 hPa 16.1 km SW 7.4 km/h / 2.1 m/s - N/A   Clear
11:53 PM 8.3 °C - -2.2 °C 48% 1013.6 hPa 16.1 km Calm Calm - N/A   Clear